Tracking 25195 objects as of 20-Jan-2022
HD Live streaming from Space Station
objects crossing your sky now

STARLINK-1091

Track STARLINK-1091 now!
10-day predictions
STARLINK-1091 is classified as:


NORAD ID: 44940
Int'l Code: 2020-001AC
Perigee: 553.1 km
Apogee: 555.7 km
Inclination: 53.1 °
Period: 95.6 minutes
Semi major axis: 6925 km
RCS: Unknown
Launch date: January 7, 2020
Source: United States (US)
Launch site: AIR FORCE EASTERN TEST RANGE (AFETR)
aabbcc
Your satellite tracking list
Your tracking list is empty




NASA's NSSDC Master Catalog

Two Line Element Set (TLE):
1 44940U 20001AC  22019.39318292  .00001518  00000-0  12087-3 0  9991
2 44940  53.0544 266.6029 0001846  61.1274 298.9900 15.06376085112489
Source of the keplerian elements: AFSPC